Timestamp,Temp,Chill,HIndex,Humid,Dewpt,Wind,HiWind,WindDir,Rain,RainRate,Barom,Solar,ET,UV,InsideTemp,InsideHumid
2016-09-02 00:00:00,60,60,60,78,53.1178952539102,9,15,225,0,0,29.777,0,0.002,0,67.5,58
2016-09-02 00:05:00,59.9,59.9,59.9,78,53.0208915348081,7,12,202.5,0,0,29.775,0,0,0,67.5,58
2016-09-02 00:10:00,59.7,59.7,59.7,78,52.8268821690689,8,15,202.5,0,0,29.775,0,0,0,67.4,59
2016-09-02 00:15:00,59.6,59.6,59.6,79,53.0770744567133,8,15,202.5,0,0,29.775,0,0,0,67.4,59
2016-09-02 00:20:00,59.5,59.5,59.5,79,52.9799179645472,6,13,202.5,0,0,29.776,0,0,0,67.2,59
2016-09-02 00:25:00,59.4,59.4,59.4,79,52.8827608613736,5,12,225,0,0,29.78,0,0,0,67.2,59
2016-09-02 00:30:00,59.3,59.3,59.3,79,52.7856031471868,6,11,225,0,0,29.778,0,0,0,67.2,59
2016-09-02 00:35:00,59.2,59.2,59.2,79,52.6884448219811,3,6,180,0,0,29.776,0,0,0,67.2,59
2016-09-02 00:40:00,59.1,59.1,59.1,79,52.5912858857507,1,6,202.5,0,0,29.776,0,0,0,67,59
2016-09-02 00:45:00,59,59,59,79,52.4941263384897,2,6,202.5,0,0,29.775,0,0,0,66.7,60
2016-09-02 00:50:00,59,59,59,79,52.4941263384897,0,1,0,0,0,29.771,0,0,0,66.7,60
2016-09-02 00:55:00,59,59,59,79,52.4941263384897,2,6,202.5,0,0,29.775,0,0,0,66.6,60
2016-09-02 01:00:00,59,59,59,79,52.4941263384897,2,6,202.5,0,0,29.769,0,0.001,0,66.4,60
2016-09-02 01:05:00,59,59,59,79,52.4941263384897,2,8,202.5,0,0,29.764,0,0,0,66.4,60
2016-09-02 01:10:00,59.1,59.1,59.1,79,52.5912858857507,1,6,202.5,0,0,29.763,0,0,0,66.4,60
2016-09-02 01:15:00,59.2,59.2,59.2,79,52.6884448219811,2,6,180,0,0,29.765,0,0,0,66.4,60
2016-09-02 01:20:00,59.3,59.3,59.3,79,52.7856031471868,1,6,180,0,0,29.762,0,0,0,66.4,60
2016-09-02 01:25:00,59.4,59.4,59.4,79,52.8827608613736,1,6,180,0,0,29.765,0,0,0,66.6,60
2016-09-02 01:30:00,59.5,59.5,59.5,79,52.9799179645472,1,6,180,0,0,29.765,0,0,0,66.6,60
2016-09-02 01:35:00,59.6,59.6,59.6,79,53.0770744567133,1,6,180,0,0,29.753,0,0,0,66.4,60
2016-09-02 01:40:00,59.7,59.7,59.7,80,53.5177373251242,5,12,180,0,0,29.759,0,0,0,66.6,61
2016-09-02 01:45:00,59.6,59.6,59.6,80,53.4204327565276,3,10,180,0,0,29.755,0,0,0,66.6,61
2016-09-02 01:50:00,59.6,59.6,59.6,80,53.4204327565276,2,7,180,0,0,29.756,0,0,0,66.4,62
2016-09-02 01:55:00,59.4,59.4,59.4,80,53.2258218801539,2,7,157.5,0,0,29.754,0,0,0,66.4,62
2016-09-02 02:00:00,59.3,59.3,59.3,81,53.4676829620095,0,4,0,0,0,29.754,0,0.001,0,66.4,62
2016-09-02 02:05:00,59.1,59.1,59.1,81,53.2727745353356,0,4,0,0,0,29.755,0,0,0,66.4,62
2016-09-02 02:10:00,59,59,59,81,53.1753194989253,1,6,157.5,0,0,29.759,0,0,0,66.2,62
2016-09-02 02:15:00,59,59,59,81,53.1753194989253,1,7,157.5,0,0,29.757,0,0,0,66.2,63
2016-09-02 02:20:00,59,59,59,82,53.5103919883795,1,7,157.5,0,0,29.756,0,0,0,66.2,63
2016-09-02 02:25:00,59,59,59,82,53.5103919883795,1,5,180,0,0,29.754,0,0,0,66.2,63
2016-09-02 02:30:00,59,59,59,82,53.5103919883795,1,5,180,0,0,29.756,0,0,0,66.2,63
2016-09-02 02:35:00,59,59,59,82,53.5103919883795,2,8,180,0,0,29.755,0,0,0,66.2,63
2016-09-02 02:40:00,59,59,59,82,53.5103919883795,2,10,135,0,0,29.75,0,0,0,66.2,63
2016-09-02 02:45:00,59,59,59,82,53.5103919883795,3,7,157.5,0,0,29.749,0,0,0,66.2,63
2016-09-02 02:50:00,59,59,59,83,53.841894265342,2,8,180,0,0,29.747,0,0,0,66.2,63
2016-09-02 02:55:00,59,59,59,83,53.841894265342,2,8,180,0,0,29.744,0,0,0,66.1,64
2016-09-02 03:00:00,59,59,59,83,53.841894265342,2,6,157.5,0,0,29.743,0,0.001,0,66.1,64
2016-09-02 03:05:00,59,59,59,83,53.841894265342,4,9,202.5,0,0,29.742,0,0,0,66.1,64
2016-09-02 03:10:00,59.2,59.2,59.2,83,54.0373830155221,3,9,180,0,0,29.739,0,0,0,66.1,64
2016-09-02 03:15:00,59.2,59.2,59.2,83,54.0373830155221,4,11,157.5,0,0,29.738,0,0,0,66.1,64
2016-09-02 03:20:00,59.3,59.3,59.3,83,54.1351266595664,3,8,180,0,0,29.734,0,0,0,66.1,64
2016-09-02 03:25:00,59.3,59.3,59.3,83,54.1351266595664,5,10,180,0,0,29.732,0,0,0,66.1,65
2016-09-02 03:30:00,59.3,59.3,59.3,83,54.1351266595664,3,8,180,0,0,29.733,0,0,0,66.1,64
2016-09-02 03:35:00,59.3,59.3,59.3,83,54.1351266595664,4,9,180,0,0,29.729,0,0,0,66.1,65
2016-09-02 03:40:00,59.3,59.3,59.3,83,54.1351266595664,4,10,157.5,0,0,29.729,0,0,0,66.1,65
2016-09-02 03:45:00,59.4,59.4,59.4,84,54.5614534224418,1,4,157.5,0,0,29.73,0,0,0,66.1,65
2016-09-02 03:50:00,59.4,59.4,59.4,84,54.5614534224418,1,7,135,0,0,29.726,0,0,0,66.1,65
2016-09-02 03:55:00,59.4,59.4,59.4,84,54.5614534224418,4,10,180,0,0,29.725,0,0,0,66.1,65
2016-09-02 04:00:00,59.4,59.4,59.4,84,54.5614534224418,3,8,157.5,0,0,29.723,0,0.001,0,66.2,65
2016-09-02 04:05:00,59.5,59.5,59.5,84,54.6593388705467,3,9,202.5,0,0,29.724,0,0,0,66.2,65
2016-09-02 04:10:00,59.5,59.5,59.5,84,54.6593388705467,2,8,180,0,0,29.718,0,0,0,66.2,65
2016-09-02 04:15:00,59.5,59.5,59.5,84,54.6593388705467,2,6,180,0,0,29.717,0,0,0,66.2,65
2016-09-02 04:20:00,59.5,59.5,59.5,84,54.6593388705467,2,6,180,0,0,29.716,0,0,0,66.2,65
2016-09-02 04:25:00,59.6,59.6,59.6,84,54.7572238616243,3,7,180,0,0,29.716,0,0,0,66.2,66
2016-09-02 04:30:00,59.6,59.6,59.6,84,54.7572238616243,3,8,135,0,0,29.714,0,0,0,66.2,65
2016-09-02 04:35:00,59.6,59.6,59.6,84,54.7572238616243,2,6,157.5,0,0,29.711,0,0,0,66.2,66
2016-09-02 04:40:00,59.7,59.7,59.7,84,54.855108395678,2,7,157.5,0,0,29.71,0,0,0,66.2,66
2016-09-02 04:45:00,59.7,59.7,59.7,84,54.855108395678,3,6,157.5,0,0,29.712,0,0,0,66.2,66
2016-09-02 04:50:00,59.8,59.8,59.8,84,54.9529924727109,2,6,135,0,0,29.71,0,0,0,66.2,66
2016-09-02 04:55:00,59.9,59.9,59.9,84,55.0508760927262,2,5,135,0,0,29.71,0,0,0,66.2,66
2016-09-02 05:00:00,59.9,59.9,59.9,84,55.0508760927262,1,5,135,0,0,29.71,0,0.001,0,66.2,66
2016-09-02 05:05:00,60,60,60,84,55.1487592557272,3,7,157.5,0,0,29.708,0,0,0,66.2,66
2016-09-02 05:10:00,60,60,60,84,55.1487592557272,3,9,180,0,0,29.708,0,0,0,66.4,66
2016-09-02 05:15:00,60.1,60.1,60.1,84,55.2466419617169,4,12,180,0,0,29.708,0,0,0,66.2,66
2016-09-02 05:20:00,60.2,60.2,60.2,84,55.3445242106986,4,9,157.5,0,0,29.707,0,0,0,66.2,66
2016-09-02 05:25:00,60.2,60.2,60.2,84,55.3445242106986,3,8,157.5,0,0,29.709,0,0,0,66.2,67
2016-09-02 05:30:00,60.3,60.3,60.3,84,55.4424060026756,5,12,202.5,0,0,29.71,0,0,0,66.2,67
2016-09-02 05:35:00,60.3,60.3,60.3,84,55.4424060026756,4,11,180,0,0,29.709,1,0,0,66.2,67
2016-09-02 05:40:00,60.4,60.4,60.4,84,55.540287337651,3,9,202.5,0,0,29.712,6,0,0,66.2,67
2016-09-02 05:45:00,60.4,60.4,60.4,84,55.540287337651,4,9,180,0,0,29.709,8,0,0,66.2,67
2016-09-02 05:50:00,60.5,60.5,60.5,84,55.638168215628,5,13,180,0,0,29.713,9,0,0,66.2,67
2016-09-02 05:55:00,60.5,60.5,60.5,84,55.638168215628,5,10,180,0,0,29.717,8,0,0,66.2,67
2016-09-02 06:00:00,60.5,60.5,60.5,84,55.638168215628,4,10,180,0,0,29.718,8,0.001,0,66.2,67
2016-09-02 06:05:00,60.5,60.5,60.5,85,55.964891797251,6,11,180,0,0,29.716,15,0,0,66.2,68
2016-09-02 06:10:00,60.5,60.5,60.5,85,55.964891797251,5,9,202.5,0,0,29.719,10,0,0,66.2,69
2016-09-02 06:15:00,60.4,60.4,60.4,85,55.866869221731,2,8,225,0,0,29.73,3,0,0,66.2,69
2016-09-02 06:20:00,60.4,60.4,60.4,86,56.1900959759454,0,5,0,0,0,29.731,5,0,0,66.1,69
2016-09-02 06:25:00,60.2,60.2,60.2,86,55.9937689482953,2,7,202.5,0,0,29.73,9,0,0,66.2,69
2016-09-02 06:30:00,59.8,59.8,59.8,85,55.2787248035232,2,8,202.5,0,0,29.727,11,0,0,66.1,68
2016-09-02 06:35:00,59.5,59.5,59.5,86,55.3066118447271,0,4,0,0,0,29.731,14,0,0,66.1,67
2016-09-02 06:40:00,59.3,59.3,59.3,85,54.7885927147145,1,6,180,0,0,29.736,17,0,0,65.9,67
2016-09-02 06:45:00,59.1,59.1,59.1,86,54.9139419075556,1,4,180,0,0,29.735,24,0,0,65.8,67
2016-09-02 06:50:00,59,59,59,86,54.81577343061,1,5,180,0,0,29.734,28,0,0,65.8,68
2016-09-02 06:55:00,59.1,59.1,59.1,86,54.9139419075556,0,3,0,0,0,29.739,30,0,0,65.8,68
2016-09-02 07:00:00,59.3,59.3,59.3,86,55.1102776702587,1,6,180,0,0,29.736,36,0.001,0,65.8,69
2016-09-02 07:05:00,59.5,59.5,59.5,87,55.6253068660649,2,6,180,0,0,29.732,45,0,0,65.8,69
2016-09-02 07:10:00,59.6,59.6,59.6,87,55.7236121074796,1,5,157.5,0,0,29.727,43,0,0,65.9,70
2016-09-02 07:15:00,59.7,59.7,59.7,87,55.8219169814999,1,5,157.5,0,0,29.726,40,0,0,65.9,70
2016-09-02 07:20:00,59.8,59.8,59.8,87,55.9202214881277,2,6,157.5,0,0,29.728,48,0,0,65.9,70
2016-09-02 07:25:00,59.9,59.9,59.9,87,56.0185256273653,2,6,157.5,0,0,29.728,59,0,0,66.1,70
2016-09-02 07:30:00,60,60,60,87,56.1168293992145,2,7,157.5,0,0,29.728,62,0,0,66.2,69
2016-09-02 07:35:00,60,60,60,87,56.1168293992145,4,7,180,0,0,29.731,49,0,0,66.4,69
2016-09-02 07:40:00,60.1,60.1,60.1,87,56.2151328036775,3,8,180,0,0,29.736,54,0,0,66.6,69
2016-09-02 07:45:00,60.2,60.2,60.2,87,56.3134358407564,5,8,180,0,0,29.733,75,0,0,66.6,69
2016-09-02 07:50:00,60.2,60.2,60.2,87,56.3134358407564,4,8,202.5,0,0,29.729,88,0,0,66.7,68
2016-09-02 07:55:00,60.3,60.3,60.3,87,56.4117385104531,3,7,180,0,0,29.731,120,0,0.4,66.9,68
2016-09-02 08:00:00,60.4,60.4,60.4,87,56.5100408127699,3,6,180,0,0,29.728,150,0.002,0.7,67,68
2016-09-02 08:05:00,60.5,60.5,60.5,87,56.6083427477086,3,8,202.5,0,0,29.732,159,0,0.6,67.4,67
2016-09-02 08:10:00,60.7,60.7,60.7,87,56.8049455154603,3,8,202.5,0,0,29.729,177,0,0.7,67.7,67
2016-09-02 08:15:00,60.9,60.9,60.9,86,56.6809065970493,3,9,202.5,0,0,29.729,158,0,0.7,67.9,66
2016-09-02 08:20:00,61,61,61,85,56.4549982713848,5,13,202.5,0,0,29.729,146,0,0.7,68,65
2016-09-02 08:25:00,61.1,61.1,61.1,85,56.5530182855377,3,8,202.5,0,0,29.732,152,0,0.7,68.5,64
2016-09-02 08:30:00,61.2,61.2,61.2,84,56.323321565781,3,13,225,0,0,29.73,156,0,0.7,69,63
2016-09-02 08:35:00,61.4,61.4,61.4,83,56.1876306101954,1,7,225,0,0,29.731,162,0,0.8,69.6,63
2016-09-02 08:40:00,61.5,61.5,61.5,82,55.950250355529,3,8,180,0,0,29.73,177,0,0.9,70.1,62
2016-09-02 08:45:00,61.7,61.7,61.7,81,55.8064128958721,2,7,225,0,0,29.736,155,0,0.7,70.2,60
2016-09-02 08:50:00,61.8,61.8,61.8,80,55.5609993583313,3,10,180,0,0,29.739,142,0,0.7,70.6,60
2016-09-02 08:55:00,62,62,62,80,55.7555824106357,1,7,202.5,0,0,29.739,124,0,0.6,70.9,59
2016-09-02 09:00:00,62.2,62.2,62.2,79,55.6029288083063,1,7,180,0,0,29.738,112,0.004,0.4,70.9,59
2016-09-02 09:05:00,62.4,62.4,62.4,79,55.7972081917483,1,4,180,0,0,29.737,117,0,0.5,70.7,59
2016-09-02 09:10:00,62.6,62.6,62.6,78,55.6397664506364,1,4,180,0,0,29.737,140,0,0.7,71.1,59
2016-09-02 09:15:00,62.7,62.7,62.7,78,55.7367528243943,1,5,180,0,0,29.737,134,0,0.7,71.1,58
2016-09-02 09:20:00,62.9,62.9,62.9,77,55.5745658794975,2,7,180,0,0,29.735,136,0,0.7,71.1,58
2016-09-02 09:25:00,62.9,62.9,62.9,76,55.2143244630337,2,6,180,0,0,29.735,154,0,0.9,71.1,57
2016-09-02 09:30:00,63,63,63,75,54.9464183554245,2,6,202.5,0,0,29.737,173,0,1,71.2,56
2016-09-02 09:35:00,63.1,63.1,63.1,75,55.0429385344218,2,6,202.5,0,0,29.738,191,0,1.1,71.4,56
2016-09-02 09:40:00,63.3,63.3,63.3,74,54.8666264320003,2,8,202.5,0,0,29.736,200,0,1.2,71.8,56
2016-09-02 09:45:00,63.4,63.4,63.4,73,54.5890677795208,2,7,225,0,0,29.733,215,0,1.3,72.1,55
2016-09-02 09:50:00,63.7,63.7,63.7,72,54.4987350241584,3,9,180,0,0,29.732,230,0,1.4,72.4,55
2016-09-02 09:55:00,63.8,63.8,63.8,72,54.5947703131432,3,7,225,0,0,29.734,194,0,1.2,72.8,54
2016-09-02 10:00:00,63.9,63.9,63.9,72,54.690804765331,3,8,202.5,0,0,29.735,209,0.004,1.4,73.1,53
2016-09-02 10:05:00,64,64,64,72,54.7868383807326,2,5,180,0,0,29.731,201,0,1.3,73.3,54
2016-09-02 10:10:00,64.2,64.2,64.2,71,54.5945066814791,3,11,180,0,0,29.726,216,0,1.5,73.6,52
2016-09-02 10:15:00,64.2,64.2,64.2,70,54.2053265751221,5,14,202.5,0,0,29.723,261,0,1.8,74,52
2016-09-02 10:20:00,64.3,64.3,64.3,70,54.301028376085,4,9,202.5,0,0,29.727,211,0,1.3,74,52
2016-09-02 10:25:00,64.4,64.4,64.4,70,54.3967292732202,4,8,202.5,0,0,29.724,224,0,1.4,74.2,51
2016-09-02 10:30:00,64.5,64.5,64.5,70,54.4924292665404,3,13,202.5,0,0,29.729,258,0,1.9,74.2,50
2016-09-02 10:35:00,64.6,64.6,64.6,68,53.793543841461,3,14,225,0,0,29.727,283,0,2.2,73.8,50
2016-09-02 10:40:00,64.8,64.8,64.8,68,53.9842645236241,4,9,225,0,0,29.727,226,0,1.7,73.8,50
2016-09-02 10:45:00,64.9,64.9,64.9,68,54.0796234066239,5,10,180,0,0,29.726,207,0,1.4,74,50
2016-09-02 10:50:00,65,65,65,68,54.1749813175889,4,11,225,0,0,29.728,193,0,1.2,74.2,50
2016-09-02 10:55:00,65,65,65,67,53.7692757199883,3,10,247.5,0,0,29.728,201,0,1.4,74.2,49
2016-09-02 11:00:00,65,65,65,67,53.7692757199883,3,11,202.5,0,0,29.731,352,0.006,2.6,74.2,50
2016-09-02 11:05:00,65.4,65.4,65.4,66,53.7382545591049,5,10,225,0,0,29.731,402,0,2.9,74.3,50
2016-09-02 11:10:00,65.7,65.7,65.7,65,53.6054713877072,6,11,202.5,0,0,29.729,323,0,2.6,74.7,50
2016-09-02 11:15:00,65.7,65.7,65.7,65,53.6054713877072,5,13,225,0,0,29.721,360,0,2.8,75.2,49
2016-09-02 11:20:00,66.1,66.1,66.1,65,53.9847745541254,3,6,202.5,0,0,29.717,458,0,3.3,75.7,48
2016-09-02 11:25:00,66.6,66.6,66.6,64,54.033785156785,3,10,247.5,0,0,29.719,317,0,2.7,75.9,47
2016-09-02 11:30:00,66.8,66.8,66.8,63,53.7917310883157,3,10,247.5,0,0,29.722,271,0,2.1,75.7,47
2016-09-02 11:35:00,66.7,66.7,66.7,63,53.6972747139135,4,9,247.5,0,0,29.719,310,0,2.3,75.4,47
2016-09-02 11:40:00,66.6,66.6,66.6,64,54.033785156785,4,12,292.5,0,0,29.72,209,0,1.4,75.2,47
2016-09-02 11:45:00,66.1,66.1,66.1,64,53.5605746254121,6,13,247.5,0,0,29.728,118,0,0.5,74.7,47
2016-09-02 11:50:00,65.6,65.6,65.6,65,53.5106429043722,6,14,225,0,0,29.723,325,0,2.5,74.2,48
2016-09-02 11:55:00,65.4,65.4,65.4,65,53.3209827074974,3,13,292.5,0,0,29.723,417,0,3.4,74,48
2016-09-02 12:00:00,65.4,65.4,65.4,64,52.8980331671266,4,12,180,0,0,29.718,448,0.009,3.5,74.3,47
2016-09-02 12:05:00,65.6,65.6,65.6,63,52.6581788193502,7,19,292.5,0,0,29.722,491,0,3.7,74.3,46
2016-09-02 12:10:00,65.7,65.7,65.7,63,52.7526478234927,5,13,225,0,0,29.724,460,0,3.4,74.2,46
2016-09-02 12:15:00,65.9,65.9,65.9,63,52.94158238701,5,10,202.5,0,0,29.72,417,0,3.1,73.8,47
2016-09-02 12:20:00,66,66,66,63,53.0360479464267,5,15,202.5,0,0,29.721,386,0,2.8,74.2,48
2016-09-02 12:25:00,66.1,66.1,66.1,63,53.1305123576432,5,11,202.5,0,0,29.718,315,0,2.4,74,47
2016-09-02 12:30:00,66.2,66.2,66.2,63,53.2249756206807,3,9,202.5,0,0,29.712,331,0,2.5,74.2,47
2016-09-02 12:35:00,66.2,66.2,66.2,61,52.3461791354259,3,11,292.5,0,0,29.716,343,0,2.5,74.3,46
2016-09-02 12:40:00,66.3,66.3,66.3,60,51.9911510574199,3,12,270,0,0,29.714,316,0,2.3,74.7,46
2016-09-02 12:45:00,66.4,66.4,66.4,60,52.0850541231079,4,11,247.5,0,0,29.715,283,0,2,74.7,45
2016-09-02 12:50:00,66.4,66.4,66.4,60,52.0850541231079,3,13,225,0,0,29.718,242,0,1.7,74.7,45
2016-09-02 12:55:00,66.4,66.4,66.4,60,52.0850541231079,4,8,180,0,0,29.718,253,0,1.8,74.7,47
2016-09-02 13:00:00,66.3,66.3,66.3,59,51.5354033994812,5,12,202.5,0,0,29.715,314,0.009,2.2,74.9,46
2016-09-02 13:05:00,66.3,66.3,66.3,60,51.9911510574199,4,9,247.5,0,0,29.716,351,0,2.6,74.5,44
2016-09-02 13:10:00,66.3,66.3,66.3,60,51.9911510574199,5,12,180,0,0,29.716,314,0,2.3,74.3,45
2016-09-02 13:15:00,66.3,66.3,66.3,60,51.9911510574199,6,12,202.5,0,0,29.714,311,0,2.2,74.2,45
2016-09-02 13:20:00,66.3,66.3,66.3,61,52.4402718750059,4,11,180,0,0,29.716,299,0,2.1,74.2,45
2016-09-02 13:25:00,66.2,66.2,66.2,59,51.4416900784893,6,13,202.5,0,0,29.714,205,0,1.3,74,45
2016-09-02 13:30:00,66.1,66.1,66.1,59,51.3479754618876,5,12,225,0,0,29.709,244,0,1.7,73.8,45
2016-09-02 13:35:00,66,66,66,60,51.7094343113504,6,16,202.5,0,0,29.708,276,0,1.9,74,45
2016-09-02 13:40:00,65.9,65.9,65.9,61,52.0638935898135,5,14,225,0,0,29.712,259,0,1.7,73.8,45
2016-09-02 13:45:00,65.8,65.8,65.8,60,51.5216168562134,5,13,247.5,0,0,29.713,198,0,1.2,73.8,45
2016-09-02 13:50:00,65.7,65.7,65.7,61,51.8756971201071,6,18,225,0,0,29.714,238,0,1.5,73.6,45
2016-09-02 13:55:00,65.8,65.8,65.8,61,51.9697959655726,5,13,225,0,0,29.713,387,0,2.7,73.6,45
2016-09-02 14:00:00,66.1,66.1,66.1,61,52.2520851747163,5,13,247.5,0,0,29.712,329,0.008,2.2,73.6,45
2016-09-02 14:05:00,66.4,66.4,66.4,61,52.53436339348,4,10,202.5,0,0,29.711,296,0,2,73.8,46
2016-09-02 14:10:00,66.4,66.4,66.4,61,52.53436339348,7,23,225,0,0,29.711,334,0,2.1,74,46
2016-09-02 14:15:00,66.4,66.4,66.4,61,52.53436339348,6,15,225,0,0,29.707,318,0,2.1,74,46
2016-09-02 14:20:00,66.4,66.4,66.4,61,52.53436339348,5,15,247.5,0,0,29.714,254,0,1.7,73.6,46
2016-09-02 14:25:00,66.3,66.3,66.3,62,52.8829693943821,5,13,247.5,0,0,29.716,224,0,1.4,73.3,47
2016-09-02 14:30:00,66.2,66.2,66.2,62,52.7886907490064,5,19,247.5,0,0,29.719,191,0,1,73,47
2016-09-02 14:35:00,66,66,66,63,53.0360479464267,6,11,247.5,0,0,29.72,206,0,1.2,72.4,49
2016-09-02 14:40:00,66,66,66,64,53.4659291825149,5,16,292.5,0,0,29.717,274,0,1.7,72.4,49
2016-09-02 14:45:00,66.1,66.1,66.1,65,53.9847745541254,4,10,247.5,0,0,29.718,285,0,2,72.4,50
2016-09-02 14:50:00,66.2,66.2,66.2,64,53.6552189560756,6,16,225,0,0,29.719,308,0,2.2,72.8,50
2016-09-02 14:55:00,66.6,66.6,66.6,62,53.1657982239709,9,27,225,0,0,29.712,491,0,2.3,73.1,50
2016-09-02 15:00:00,66.6,66.6,66.6,62,53.1657982239709,8,16,225,0,0,29.71,182,0.008,1.2,73.5,49
2016-09-02 15:05:00,66.7,66.7,66.7,61,52.8166306225054,5,15,202.5,0,0,29.71,329,0,1.7,73.6,48
2016-09-02 15:10:00,66.6,66.6,66.6,59,51.8165355890672,6,18,225,0,0,29.708,189,0,1.1,73.3,47
2016-09-02 15:15:00,66.6,66.6,66.6,60,52.272856480133,4,13,225,0,0,29.704,146,0,1.1,73.3,47
2016-09-02 15:20:00,66.3,66.3,66.3,59,51.5354033994812,7,14,247.5,0,0,29.706,122,0,1,73.1,46
2016-09-02 15:25:00,65.9,65.9,65.9,59,51.1605423417476,5,13,247.5,0,0,29.705,154,0,0.9,73,47
2016-09-02 15:30:00,66.1,66.1,66.1,60,51.8033411515664,5,13,247.5,0,0,29.706,464,0,1.5,73,47
2016-09-02 15:35:00,66.4,66.4,66.4,59,51.6291154248903,6,16,202.5,0,0,29.705,136,0,0.8,73.1,47
2016-09-02 15:40:00,66.4,66.4,66.4,59,51.6291154248903,5,19,225,0,0,29.707,150,0,0.6,73.1,47
2016-09-02 15:45:00,66.3,66.3,66.3,60,51.9911510574199,6,12,247.5,0,0,29.705,159,0,0.6,73.3,47
2016-09-02 15:50:00,66.1,66.1,66.1,60,51.8033411515664,5,14,270,0,0,29.707,144,0,0.5,73.1,47
2016-09-02 15:55:00,66,66,66,61,52.1579899928535,4,11,202.5,0,0,29.705,158,0,0.5,73.1,47
2016-09-02 16:00:00,65.9,65.9,65.9,61,52.0638935898135,3,15,225,0,0,29.706,148,0.006,0.2,73.3,47
2016-09-02 16:05:00,65.8,65.8,65.8,61,51.9697959655726,3,11,225,0,0,29.708,121,0,0,73.3,47
2016-09-02 16:10:00,65.8,65.8,65.8,61,51.9697959655726,2,7,202.5,0,0,29.707,129,0,0,73.3,47
2016-09-02 16:15:00,65.8,65.8,65.8,61,51.9697959655726,4,18,202.5,0,0,29.704,143,0,0.1,73.6,47
2016-09-02 16:20:00,65.7,65.7,65.7,61,51.8756971201071,4,11,225,0,0,29.704,122,0,0,74,47
2016-09-02 16:25:00,65.7,65.7,65.7,61,51.8756971201071,6,15,225,0,0,29.702,143,0,0,74,46
2016-09-02 16:30:00,65.6,65.6,65.6,60,51.3337943679677,6,13,247.5,0,0,29.704,139,0,0,73.8,45
2016-09-02 16:35:00,65.4,65.4,65.4,61,51.5933932561248,6,12,225,0,0,29.705,113,0,0,73.8,45
2016-09-02 16:40:00,65.4,65.4,65.4,61,51.5933932561248,5,15,180,0,0,29.704,100,0,0,73.6,46
2016-09-02 16:45:00,65.4,65.4,65.4,62,52.0344189435571,2,7,225,0,0,29.705,109,0,0,73.8,46
2016-09-02 16:50:00,65.4,65.4,65.4,62,52.0344189435571,3,7,202.5,0,0,29.705,103,0,0,74,46
2016-09-02 16:55:00,65.5,65.5,65.5,62,52.1287070652397,3,9,202.5,0,0,29.704,100,0,0,74.2,46
2016-09-02 17:00:00,65.4,65.4,65.4,62,52.0344189435571,5,10,202.5,0,0,29.705,90,0.004,0,74.3,46
2016-09-02 17:05:00,65.4,65.4,65.4,63,52.4692373661928,4,10,202.5,0,0,29.708,82,0,0,74,46
2016-09-02 17:10:00,65.3,65.3,65.3,62,51.9401296372356,6,14,225,0,0,29.709,65,0,0,73.6,46
2016-09-02 17:15:00,65.2,65.2,65.2,63,52.2802913197327,2,7,225,0,0,29.708,60,0,0,73.5,46
2016-09-02 17:20:00,65.2,65.2,65.2,64,52.7087255965722,3,10,247.5,0,0,29.715,48,0,0,73.1,47
2016-09-02 17:25:00,65.1,65.1,65.1,64,52.6140701426895,3,9,225,0,0,29.713,40,0,0,72.8,48
2016-09-02 17:30:00,64.9,64.9,64.9,65,52.8468133715928,4,14,225,0,0,29.716,33,0,0,72.6,48
2016-09-02 17:35:00,64.7,64.7,64.7,66,53.0731769189801,4,12,315,0,0,29.716,27,0,0,72.4,49
2016-09-02 17:40:00,64.5,64.5,64.5,66,52.883145361758,5,13,247.5,0,0,29.721,49,0,0,72.3,49
2016-09-02 17:45:00,64.3,64.3,64.3,66,52.6931096379161,1,8,292.5,0,0,29.717,57,0,0,72.1,49
2016-09-02 17:50:00,64.3,64.3,64.3,67,53.1029520427154,4,10,292.5,0,0,29.717,38,0,0,71.9,50
2016-09-02 17:55:00,64.1,64.1,64.1,68,53.3167251244054,5,10,292.5,0,0,29.718,35,0,0,71.9,50
2016-09-02 18:00:00,64,64,64,68,53.2213584645929,3,9,247.5,0,0,29.724,49,0.002,0,71.8,50
2016-09-02 18:05:00,63.8,63.8,63.8,69,53.4290866221927,5,11,270,0,0,29.722,47,0,0,71.8,51
2016-09-02 18:10:00,63.6,63.6,63.6,70,53.6310967882452,4,10,202.5,0,0,29.717,40,0,0,71.6,51
2016-09-02 18:15:00,63.5,63.5,63.5,70,53.5353886601296,4,11,225,0,0,29.719,69,0,0,71.4,52
2016-09-02 18:20:00,63.4,63.4,63.4,70,53.4396796280839,3,9,270,0,0,29.723,39,0,0,71.4,52
2016-09-02 18:25:00,63.2,63.2,63.2,70,53.2482588521506,2,7,292.5,0,0,29.723,35,0,0,71.2,52
2016-09-02 18:30:00,63.1,63.1,63.1,71,53.5399078434238,3,7,247.5,0,0,29.724,23,0,0,71.1,52
2016-09-02 18:35:00,63,63,63,71,53.4440300003432,2,7,225,0,0,29.722,15,0,0,70.9,52
2016-09-02 18:40:00,62.8,62.8,62.8,70,52.8654064525587,3,9,202.5,0,0,29.728,11,0,0,70.7,52
2016-09-02 18:45:00,62.4,62.4,62.4,70,52.4825395886496,5,11,225,0,0,29.731,9,0,0,70.6,52
2016-09-02 18:50:00,62.2,62.2,62.2,70,52.29110073232,2,7,247.5,0,0,29.727,6,0,0,70.2,52
2016-09-02 18:55:00,61.9,61.9,61.9,70,52.0039356670685,1,7,225,0,0,29.725,2,0,0,70.1,52
2016-09-02 19:00:00,61.8,61.8,61.8,71,52.2934279972724,1,8,247.5,0,0,29.724,0,0.001,0,69.9,52
2016-09-02 19:05:00,61.6,61.6,61.6,71,52.1016488112457,3,7,202.5,0,0,29.724,0,0,0,69.6,52
2016-09-02 19:10:00,61.4,61.4,61.4,71,51.9098661433906,2,9,202.5,0,0,29.728,0,0,0,69.4,53
2016-09-02 19:15:00,61.3,61.3,61.3,71,51.8139735037477,1,4,202.5,0,0,29.73,0,0,0,69.2,53
2016-09-02 19:20:00,61.1,61.1,61.1,72,52.0015237589441,0,5,0,0,0,29.734,0,0,0,69,53
2016-09-02 19:25:00,61,61,61,72,51.9054658723032,1,6,202.5,0,0,29.731,0,0,0,68.7,54
2016-09-02 19:30:00,60.8,60.8,60.8,72,51.7133475877005,1,7,202.5,0,0,29.731,0,0,0,68.5,54
2016-09-02 19:35:00,60.6,60.6,60.6,72,51.5212259545966,1,6,202.5,0,0,29.733,0,0,0,68.4,54
2016-09-02 19:40:00,60.5,60.5,60.5,73,51.7989357456711,1,5,202.5,0,0,29.737,0,0,0,68,54
2016-09-02 19:45:00,60.3,60.3,60.3,73,51.6064879249905,1,5,202.5,0,0,29.738,0,0,0,68,55
2016-09-02 19:50:00,60.2,60.2,60.2,73,51.5102628085957,0,4,0,0,0,29.739,0,0,0,67.9,55
2016-09-02 19:55:00,60.1,60.1,60.1,74,51.7827007196938,1,6,202.5,0,0,29.738,0,0,0,67.9,55
2016-09-02 20:00:00,59.9,59.9,59.9,74,51.5899291449405,0,4,0,0,0,29.741,0,0,0,67.7,55
2016-09-02 20:05:00,59.8,59.8,59.8,74,51.4935422007371,0,2,0,0,0,29.74,0,0,0,67.5,56
2016-09-02 20:10:00,59.7,59.7,59.7,75,51.7608381680407,1,3,202.5,0,0,29.741,0,0,0,67.5,56
2016-09-02 20:15:00,59.6,59.6,59.6,75,51.6642928794552,0,5,0,0,0,29.745,0,0,0,67.4,56
2016-09-02 20:20:00,59.4,59.4,59.4,75,51.4712000862787,0,3,0,0,0,29.748,0,0,0,67.2,56
2016-09-02 20:25:00,59.3,59.3,59.3,76,51.7334791321213,1,4,202.5,0,0,29.751,0,0,0,67,57
2016-09-02 20:30:00,59.1,59.1,59.1,76,51.5400719969153,0,1,0,0,0,29.751,0,0,0,67,57
2016-09-02 20:35:00,59,59,59,76,51.4433673697254,0,4,0,0,0,29.752,0,0,0,66.9,57
2016-09-02 20:40:00,59,59,59,77,51.7976084001676,0,0,0,0,0,29.752,0,0,0,66.7,57
2016-09-02 20:45:00,59,59,59,77,51.7976084001676,0,0,0,0,0,29.754,0,0,0,66.6,58
2016-09-02 20:50:00,58.9,58.9,58.9,77,51.700749851307,0,2,0,0,0,29.754,0,0,0,66.4,58
2016-09-02 20:55:00,58.7,58.7,58.7,77,51.5070307304967,0,3,0,0,0,29.753,0,0,0,66.2,58
2016-09-02 21:00:00,58.6,58.6,58.6,77,51.4101701585331,0,0,0,0,0,29.755,0,0.001,0,66.2,58
2016-09-02 21:05:00,58.4,58.4,58.4,78,51.5657586435594,0,2,0,0,0,29.751,0,0,0,66.1,58
2016-09-02 21:10:00,58.4,58.4,58.4,78,51.5657586435594,0,4,0,0,0,29.75,0,0,0,65.9,59
2016-09-02 21:15:00,58.2,58.2,58.2,78,51.3717300009068,1,5,202.5,0,0,29.748,0,0,0,65.8,59
2016-09-02 21:20:00,58.2,58.2,58.2,79,51.7168279626131,0,4,0,0,0,29.747,0,0,0,65.8,59
2016-09-02 21:25:00,58.1,58.1,58.1,79,51.6196629158184,1,4,202.5,0,0,29.748,0,0,0,65.6,59
2016-09-02 21:30:00,58,58,58,79,51.5224972579355,1,4,202.5,0,0,29.748,0,0,0,65.4,59
2016-09-02 21:35:00,58,58,58,79,51.5224972579355,0,3,0,0,0,29.747,0,0,0,65.3,59
2016-09-02 21:40:00,57.9,57.9,57.9,79,51.4253309889588,3,7,180,0,0,29.749,0,0,0,65.1,60
2016-09-02 21:45:00,57.8,57.8,57.8,79,51.3281641088824,3,6,180,0,0,29.749,0,0,0,64.9,60
2016-09-02 21:50:00,57.7,57.7,57.7,79,51.2309966177006,2,6,180,0,0,29.747,0,0,0,64.9,60
2016-09-02 21:55:00,57.6,57.6,57.6,80,51.4742196354345,3,6,180,0,0,29.75,0,0,0,64.8,60
2016-09-02 22:00:00,57.5,57.5,57.5,80,51.3769028915228,2,6,180,0,0,29.752,0,0.001,0,64.6,61
2016-09-02 22:05:00,57.4,57.4,57.4,80,51.2795855677773,1,4,180,0,0,29.75,0,0,0,64.6,61